User: anonymous   Login
Location: Unspecified
(0.0000°N, 0.0000°E)
Time: 22:54:42
(UTC+00:00)
Language:

METEOR M2 - Orbit

View from above orbital plane
View from above orbital plane
View from above satellite
View from above satellite

Ground track
Ground track

The orbit data is extracted from the following two-line orbital elements,

1 40069U 14037A   20184.40388863 -.00000036 +00000-0 +25428-5 0  9995
2 40069 098.5011 221.3746 0004736 231.9308 128.1443 14.20673441310331
Epoch (UTC): 02 July 2020 09:41:35
Eccentricity: 0.0004736
inclination: 98.5011°
perigee height: 819 km
apogee height: 826 km
right ascension of ascending node: 221.3746°
argument of perigee: 231.9308°
revolutions per day: 14.20673441
mean anomaly at epoch: 128.1443°
orbit number at epoch: 31033

The dashed part of the orbit path shows where the satellite is in the earth's shadow,  

DLR